Regional Weather Roundup
Issued by NWS Sioux Falls, SD

Home | Current Version | Previous Version | Text Only | Print | Product List | Glossary Off
Versions: 1 2 3 4 5 6 7 8 9 10 11 12 13 14 15 16 17 18 19 20 21 22 23 24 25 26 27 28 29 30 31 32 33 34 35 36 37 38 39 40 41 42 43 44 45 46 47 48 49 50

000
ASUS43 KFSD 230510
RWRFSD

WEATHER ROUNDUP FOR SE SOUTH DAKOTA/SW MINNESOTA/NW IOWA
NATIONAL WEATHER SERVICE SIOUX FALLS SD
1200 AM CDT TUE MAY 23 2017

NOTE: "FAIR" INDICATES FEW OR NO CLOUDS BELOW 12,000 FEET WITH NO
SIGNIFICANT WEATHER AND OR OBSTRUCTIONS TO VISIBILITY.


SDZ038>040-050-052>070-230600-
SOUTHEAST SOUTH DAKOTA

CITY           SKY/WX    TMP DP  RH WIND       PRES   REMARKS
BROOKINGS      LGT RAIN  48  42  80 NW15G22   29.92F
CHAMBERLAIN    CLOUDY    53  43  70 N6        30.02S
HURON          LGT RAIN  48  44  86 NW6       29.98S
MADISON        MOCLDY    46  46 100 N14       29.95R
MITCHELL       MOCLDY    52  44  74 N13       29.99R
SIOUX FALLS    CLOUDY    51  47  86 NW10      29.92S
WINNER         CLOUDY    51  45  79 NW6       30.04R
YANKTON        CLOUDY    49  45  86 W8        29.96S
$$

MNZ071-072-080-081-089-090-097-098-230600-
SOUTHWEST MINNESOTA

CITY           SKY/WX    TMP DP  RH WIND       PRES   REMARKS
FAIRMONT       CLOUDY    52  49  89 NW10      29.87S
JACKSON        RAIN      50  46  87 NW10      29.89S
LUVERNE        CLOUDY    50  45  81 W8        29.92S
MARSHALL       CLOUDY    49  46  90 NW7       29.90S
MONTEVIDEO     CLOUDY    50  43  76 VRB9      29.89S
PIPESTONE      CLOUDY    50  45  81 NW5       29.90F
REDWOOD FALLS  MOCLDY    50  43  77 NW8       29.87S
TRACY          CLOUDY    50  48  91 NW5       29.89S
WINDOM         DRIZZLE   50  48  93 W8        29.88F
WORTHINGTON    CLOUDY    49  47  93 W6        29.91S
$$

IAZ001>003-012>014-020>022-031-032-NEZ013-014-SDZ071-230600-
NORTHWEST IOWA

CITY           SKY/WX    TMP DP  RH WIND       PRES   REMARKS
CHEROKEE       CLOUDY    51  48  90 N5        29.90F
DENISON        PTCLDY    52  48  87 NW10      29.92R
ESTHERVILLE    CLOUDY    51  50  96 NW13      29.87S
LE MARS        MOCLDY    52  46  82 NW7       29.93F
ORANGE CITY    MOCLDY    50  46  87 NW6       29.92S
SHELDON        CLOUDY    50  46  87 N7          N/A
SIOUX CITY     MOCLDY    52  47  83 NW8       29.94S
SPENCER        CLOUDY    52  49  89 NW9       29.90R
STORM LAKE     CLOUDY    50  46  87 NW12G18   29.89F
$$

ABBREVIATIONS USED IN REMARKS
   TC - TEMPERATURE IN CELSIUS
  WCI - WIND CHILL INDEX
   HX - HEAT INDEX
  VSB - VISIBILITY




USA.gov is the U.S. government's official web portal to all federal, state and local government web resources and services.